Powrót do katalogu

STARLINK-11637

AktywnyŁącznośćVLEO
NORAD 63190·PAYLOAD·🇺🇸 United States

Wystrzelony Mar 13, 2025 z Cape Canaveral Space Force Station

Loading…

Następne Przeloty (najbliższe 24 godziny)

TLE

ŚwieżeSource: CelesTrak SupGP

Epoka: Sep 14, 2026, 21:24 UTC

1 63190C 25048H   26257.89215278 -.00043646  00000+0 -33894-3 0  2573
2 63190  43.0004 259.8406 0001713 249.8775 100.7753 15.70863789    18

Śledź STARLINK-11637 w czasie rzeczywistym z AllMySat

Download on the App Store